Time,TemperatureF,DewpointF,PressureIn,WindDirection,WindDirectionDegrees,WindSpeedMPH,WindSpeedGustMPH,Humidity,HourlyPrecipIn,Conditions,Clouds,dailyrainin,SolarRadiationWatts/m^2,SoftwareType,DateUTC
2013-01-16 00:00:00,27.8,24.7,29.73,North,355,0.0,0.0,88,0.00,,---,0.00,0.00,VWS V14.01,2013-01-15 23:00:00,
2013-01-16 00:10:00,27.7,24.6,29.73,North,355,0.0,2.0,88,0.00,,---,0.00,0.00,VWS V14.01,2013-01-15 23:10:00,
2013-01-16 00:15:00,27.8,24.7,29.72,North,355,0.0,0.0,88,0.00,,---,0.00,0.00,VWS V14.01,2013-01-15 23:15:00,
2013-01-16 00:20:00,27.7,24.6,29.72,North,355,0.0,2.0,88,0.00,,---,0.00,0.00,VWS V14.01,2013-01-15 23:20:00,
2013-01-16 00:25:00,27.7,24.6,29.72,North,355,0.0,1.0,88,0.00,,---,0.00,0.00,VWS V14.01,2013-01-15 23:25:00,
2013-01-16 00:30:00,27.7,24.9,29.73,North,355,0.0,0.0,89,0.00,,---,0.00,0.00,VWS V14.01,2013-01-15 23:30:00,
2013-01-16 00:35:00,27.7,24.9,29.73,North,355,0.0,2.0,89,0.00,,---,0.00,0.00,VWS V14.01,2013-01-15 23:35:00,
2013-01-16 00:45:00,27.8,25.0,29.72,North,355,3.0,3.0,89,0.00,,---,0.00,0.00,VWS V14.01,2013-01-15 23:45:00,
2013-01-16 00:50:00,27.8,25.0,29.72,North,355,0.0,3.0,89,0.00,,---,0.00,0.00,VWS V14.01,2013-01-15 23:50:00,
2013-01-16 00:55:00,27.7,24.9,29.72,North,355,3.0,4.0,89,0.00,,---,0.00,0.00,VWS V14.01,2013-01-15 23:55:00,
2013-01-16 01:00:00,27.6,24.8,29.73,North,355,1.0,3.0,89,0.00,,---,0.00,0.00,VWS V14.01,2013-01-16 00:00:00,
2013-01-16 01:10:00,27.5,24.7,29.73,North,355,1.0,2.0,89,0.00,,---,0.00,0.00,VWS V14.01,2013-01-16 00:10:00,
2013-01-16 01:15:00,27.5,24.7,29.73,North,355,0.0,0.0,89,0.00,,---,0.00,0.00,VWS V14.01,2013-01-16 00:15:00,
2013-01-16 01:20:00,27.5,24.7,29.73,North,355,0.0,0.0,89,0.00,,---,0.00,0.00,VWS V14.01,2013-01-16 00:20:00,
2013-01-16 01:25:00,27.6,24.8,29.73,North,355,0.0,1.0,89,0.00,,---,0.00,0.00,VWS V14.01,2013-01-16 00:25:00,
2013-01-16 01:35:00,27.7,24.9,29.73,North,355,0.0,1.0,89,0.00,,---,0.00,0.00,VWS V14.01,2013-01-16 00:35:00,
2013-01-16 01:40:00,27.8,25.0,29.73,North,355,0.0,0.0,89,0.00,,---,0.00,0.00,VWS V14.01,2013-01-16 00:40:00,
2013-01-16 01:45:00,27.9,25.1,29.73,North,355,0.0,1.0,89,0.00,,---,0.00,0.00,VWS V14.01,2013-01-16 00:45:00,
2013-01-16 01:50:00,27.9,25.1,29.73,North,355,0.0,1.0,89,0.00,,---,0.00,0.00,VWS V14.01,2013-01-16 00:50:00,
2013-01-16 02:00:00,27.9,25.1,29.73,North,355,0.0,0.0,89,0.00,,---,0.00,0.00,VWS V14.01,2013-01-16 01:00:00,
2013-01-16 02:10:00,27.8,25.0,29.73,North,355,0.0,0.0,89,0.00,,---,0.00,0.00,VWS V14.01,2013-01-16 01:10:00,
2013-01-16 02:20:00,27.8,25.0,29.74,North,355,0.0,0.0,89,0.00,,---,0.00,0.00,VWS V14.01,2013-01-16 01:20:00,
2013-01-16 02:25:00,27.8,25.0,29.74,North,355,0.0,0.0,89,0.00,,---,0.00,0.00,VWS V14.01,2013-01-16 01:25:00,
2013-01-16 02:30:00,27.8,25.0,29.74,North,355,0.0,0.0,89,0.00,,---,0.00,0.00,VWS V14.01,2013-01-16 01:30:00,
2013-01-16 02:35:00,27.8,25.0,29.74,North,360,1.0,1.0,89,0.00,,---,0.00,0.00,VWS V14.01,2013-01-16 01:35:00,
2013-01-16 02:40:00,27.8,25.0,29.74,North,360,0.0,0.0,89,0.00,,---,0.00,0.00,VWS V14.01,2013-01-16 01:40:00,
2013-01-16 02:45:00,27.8,25.0,29.73,NE,43,0.0,3.0,89,0.00,,---,0.00,0.00,VWS V14.01,2013-01-16 01:45:00,
2013-01-16 02:50:00,27.7,24.9,29.73,NE,44,1.0,3.0,89,0.00,,---,0.00,0.00,VWS V14.01,2013-01-16 01:50:00,
2013-01-16 03:00:00,27.6,24.8,29.73,NE,44,0.0,0.0,89,0.00,,---,0.00,0.00,VWS V14.01,2013-01-16 02:00:00,
2013-01-16 03:10:00,27.6,24.8,29.73,NE,44,0.0,0.0,89,0.00,,---,0.00,0.00,VWS V14.01,2013-01-16 02:10:00,
2013-01-16 03:15:00,27.6,24.8,29.73,NE,44,0.0,0.0,89,0.00,,---,0.00,0.00,VWS V14.01,2013-01-16 02:15:00,
2013-01-16 03:25:00,27.8,25.0,29.73,NE,44,0.0,0.0,89,0.00,,---,0.00,0.00,VWS V14.01,2013-01-16 02:25:00,
2013-01-16 03:30:00,27.8,25.0,29.73,NE,44,0.0,0.0,89,0.00,,---,0.00,0.00,VWS V14.01,2013-01-16 02:30:00,
2013-01-16 03:35:00,27.9,25.1,29.73,NE,44,0.0,2.0,89,0.00,,---,0.00,0.00,VWS V14.01,2013-01-16 02:35:00,
2013-01-16 03:40:00,27.9,25.1,29.73,NE,41,1.0,3.0,89,0.00,,---,0.00,0.00,VWS V14.01,2013-01-16 02:40:00,
2013-01-16 03:45:00,27.8,25.0,29.73,North,9,2.0,4.0,89,0.00,,---,0.00,0.00,VWS V14.01,2013-01-16 02:45:00,
2013-01-16 03:50:00,27.8,25.0,29.73,North,9,0.0,2.0,89,0.00,,---,0.00,0.00,VWS V14.01,2013-01-16 02:50:00,
2013-01-16 04:00:00,27.7,24.6,29.72,North,9,0.0,0.0,88,0.00,,---,0.00,0.00,VWS V14.01,2013-01-16 03:00:00,
2013-01-16 04:10:00,27.8,24.7,29.72,North,9,0.0,0.0,88,0.00,,---,0.00,0.00,VWS V14.01,2013-01-16 03:10:00,
2013-01-16 04:20:00,27.8,24.7,29.72,North,9,0.0,1.0,88,0.00,,---,0.00,0.00,VWS V14.01,2013-01-16 03:20:00,
2013-01-16 04:25:00,27.8,24.7,29.72,North,9,0.0,2.0,88,0.00,,---,0.00,0.00,VWS V14.01,2013-01-16 03:25:00,
2013-01-16 04:30:00,27.9,24.8,29.72,North,9,0.0,2.0,88,0.00,,---,0.00,0.00,VWS V14.01,2013-01-16 03:30:00,
2013-01-16 04:35:00,27.9,24.8,29.72,North,9,0.0,2.0,88,0.00,,---,0.00,0.00,VWS V14.01,2013-01-16 03:35:00,
2013-01-16 04:45:00,28.0,24.9,29.71,North,9,2.0,2.0,88,0.00,,---,0.00,0.00,VWS V14.01,2013-01-16 03:45:00,
2013-01-16 04:50:00,28.0,24.9,29.71,North,9,0.0,0.0,88,0.00,,---,0.00,0.00,VWS V14.01,2013-01-16 03:50:00,
2013-01-16 05:00:00,27.9,24.8,29.71,North,10,3.0,4.0,88,0.00,,---,0.00,0.00,VWS V14.01,2013-01-16 04:00:00,
2013-01-16 05:05:00,27.8,24.7,29.71,North,355,3.0,5.0,88,0.00,,---,0.00,0.00,VWS V14.01,2013-01-16 04:05:00,
2013-01-16 05:15:00,27.7,24.6,29.72,North,355,3.0,4.0,88,0.00,,---,0.00,0.00,VWS V14.01,2013-01-16 04:15:00,
2013-01-16 05:20:00,27.7,24.6,29.72,North,355,1.0,1.0,88,0.00,,---,0.00,0.00,VWS V14.01,2013-01-16 04:20:00,
2013-01-16 05:25:00,27.6,24.5,29.72,North,355,1.0,3.0,88,0.00,,---,0.00,0.00,VWS V14.01,2013-01-16 04:25:00,
2013-01-16 05:30:00,27.6,24.5,29.72,North,355,1.0,2.0,88,0.00,,---,0.00,0.00,VWS V14.01,2013-01-16 04:30:00,
2013-01-16 05:40:00,27.8,25.0,29.72,North,355,3.0,3.0,89,0.00,,---,0.00,0.00,VWS V14.01,2013-01-16 04:40:00,
2013-01-16 05:45:00,27.8,25.0,29.72,North,355,3.0,3.0,89,0.00,,---,0.00,0.00,VWS V14.01,2013-01-16 04:45:00,
2013-01-16 05:50:00,27.8,25.0,29.72,North,355,3.0,3.0,89,0.00,,---,0.00,0.00,VWS V14.01,2013-01-16 04:50:00,
2013-01-16 06:00:00,27.9,25.1,29.72,North,355,0.0,2.0,89,0.00,,---,0.00,0.00,VWS V14.01,2013-01-16 05:00:00,
2013-01-16 06:05:00,27.9,25.1,29.72,North,355,2.0,2.0,89,0.00,,---,0.00,0.00,VWS V14.01,2013-01-16 05:05:00,
2013-01-16 06:10:00,27.9,25.1,29.72,North,355,0.0,3.0,89,0.00,,---,0.00,0.00,VWS V14.01,2013-01-16 05:10:00,
2013-01-16 06:15:00,27.8,25.0,29.71,North,355,2.0,4.0,89,0.00,,---,0.00,0.00,VWS V14.01,2013-01-16 05:15:00,
2013-01-16 06:20:00,27.8,25.0,29.71,NE,38,3.0,4.0,89,0.00,,---,0.00,0.00,VWS V14.01,2013-01-16 05:20:00,
2013-01-16 06:25:00,27.8,25.0,29.71,NE,37,2.0,2.0,89,0.00,,---,0.00,0.00,VWS V14.01,2013-01-16 05:25:00,
2013-01-16 06:35:00,27.8,25.2,29.72,NNE,29,0.0,0.0,90,0.00,,---,0.00,0.00,VWS V14.01,2013-01-16 05:35:00,
2013-01-16 06:40:00,27.8,25.2,29.72,NNE,29,1.0,3.0,90,0.00,,---,0.00,0.00,VWS V14.01,2013-01-16 05:40:00,
2013-01-16 06:50:00,27.7,25.2,29.72,NNE,15,3.0,3.0,90,0.00,,---,0.00,0.00,VWS V14.01,2013-01-16 05:50:00,
2013-01-16 07:00:00,27.8,25.2,29.72,NNE,15,3.0,4.0,90,0.00,,---,0.00,0.00,VWS V14.01,2013-01-16 06:00:00,
2013-01-16 07:05:00,27.8,25.2,29.72,NE,52,0.0,3.0,90,0.00,,---,0.00,0.00,VWS V14.01,2013-01-16 06:05:00,
2013-01-16 07:10:00,27.9,25.4,29.72,NE,52,0.0,3.0,90,0.00,,---,0.00,0.00,VWS V14.01,2013-01-16 06:10:00,
2013-01-16 07:15:00,27.9,25.4,29.72,NE,53,1.0,3.0,90,0.00,,---,0.00,0.00,VWS V14.01,2013-01-16 06:15:00,
2013-01-16 07:20:00,27.9,25.4,29.72,NE,53,2.0,2.0,90,0.00,,---,0.00,0.00,VWS V14.01,2013-01-16 06:20:00,
2013-01-16 07:25:00,27.9,25.4,29.72,NE,52,0.0,0.0,90,0.00,,---,0.00,0.00,VWS V14.01,2013-01-16 06:25:00,
2013-01-16 07:35:00,27.8,25.2,29.73,NE,39,0.0,3.0,90,0.00,,---,0.00,0.00,VWS V14.01,2013-01-16 06:35:00,
2013-01-16 07:40:00,27.8,25.2,29.73,North,10,4.0,4.0,90,0.00,,---,0.00,0.00,VWS V14.01,2013-01-16 06:40:00,
2013-01-16 07:50:00,27.8,25.2,29.73,NE,41,4.0,5.0,90,0.00,,---,0.00,0.00,VWS V14.01,2013-01-16 06:50:00,
2013-01-16 07:55:00,27.8,25.2,29.73,NNE,32,0.0,4.0,90,0.00,,---,0.00,0.00,VWS V14.01,2013-01-16 06:55:00,
2013-01-16 08:00:00,27.8,25.2,29.73,NNE,32,0.0,2.0,90,0.00,,---,0.00,0.00,VWS V14.01,2013-01-16 07:00:00,
2013-01-16 08:10:00,28.0,25.5,29.73,NNE,14,1.0,3.0,90,0.00,,---,0.00,0.00,VWS V14.01,2013-01-16 07:10:00,
2013-01-16 08:15:00,28.0,25.5,29.73,NNE,14,2.0,3.0,90,0.00,,---,0.00,5.00,VWS V14.01,2013-01-16 07:15:00,
2013-01-16 08:25:00,27.7,25.2,29.73,North,5,2.0,4.0,90,0.00,,---,0.00,5.00,VWS V14.01,2013-01-16 07:25:00,
2013-01-16 08:30:00,27.6,25.1,29.73,North,5,0.0,0.0,90,0.00,,---,0.00,5.00,VWS V14.01,2013-01-16 07:30:00,
2013-01-16 08:35:00,27.6,25.1,29.73,North,5,0.0,2.0,90,0.00,,---,0.00,7.00,VWS V14.01,2013-01-16 07:35:00,
2013-01-16 08:40:00,27.6,25.1,29.73,North,360,0.0,0.0,90,0.00,,---,0.00,7.00,VWS V14.01,2013-01-16 07:40:00,
2013-01-16 08:45:00,27.6,25.1,29.75,North,5,0.0,3.0,90,0.00,,---,0.00,9.00,VWS V14.01,2013-01-16 07:45:00,
2013-01-16 08:50:00,27.7,25.2,29.75,North,5,2.0,3.0,90,0.00,,---,0.00,9.00,VWS V14.01,2013-01-16 07:50:00,
2013-01-16 08:55:00,27.8,25.2,29.75,North,360,0.0,2.0,90,0.00,,---,0.00,9.00,VWS V14.01,2013-01-16 07:55:00,
2013-01-16 09:00:00,27.8,25.2,29.74,North,5,2.0,3.0,90,0.00,,---,0.00,11.00,VWS V14.01,2013-01-16 08:00:00,
2013-01-16 09:10:00,27.8,25.2,29.74,North,5,3.0,3.0,90,0.00,,---,0.00,14.00,VWS V14.01,2013-01-16 08:10:00,
2013-01-16 09:20:00,27.9,25.4,29.73,North,360,0.0,3.0,90,0.00,,---,0.00,19.00,VWS V14.01,2013-01-16 08:20:00,
2013-01-16 09:25:00,27.9,25.4,29.73,North,5,0.0,3.0,90,0.00,,---,0.00,23.00,VWS V14.01,2013-01-16 08:25:00,
2013-01-16 09:30:00,27.9,25.4,29.73,North,360,1.0,2.0,90,0.00,,---,0.00,25.00,VWS V14.01,2013-01-16 08:30:00,
2013-01-16 09:35:00,27.9,25.4,29.73,North,360,4.0,4.0,90,0.00,,---,0.00,23.00,VWS V14.01,2013-01-16 08:35:00,
2013-01-16 09:40:00,27.8,25.2,29.73,North,5,2.0,2.0,90,0.00,,---,0.00,25.00,VWS V14.01,2013-01-16 08:40:00,
2013-01-16 09:45:00,27.7,25.2,29.73,North,5,0.0,0.0,90,0.00,,---,0.00,28.00,VWS V14.01,2013-01-16 08:45:00,
2013-01-16 09:50:00,27.7,25.2,29.73,North,360,0.0,0.0,90,0.00,,---,0.00,33.00,VWS V14.01,2013-01-16 08:50:00,
2013-01-16 10:00:00,27.8,25.2,29.73,North,360,0.0,1.0,90,0.00,,---,0.00,40.00,VWS V14.01,2013-01-16 09:00:00,
2013-01-16 10:05:00,27.8,25.2,29.73,North,5,0.0,0.0,90,0.00,,---,0.00,37.00,VWS V14.01,2013-01-16 09:05:00,
2013-01-16 10:15:00,27.8,25.0,29.73,North,360,0.0,0.0,89,0.00,,---,0.00,32.00,VWS V14.01,2013-01-16 09:15:00,
2013-01-16 10:20:00,27.8,25.0,29.73,North,5,1.0,4.0,89,0.00,,---,0.00,32.00,VWS V14.01,2013-01-16 09:20:00,
2013-01-16 10:30:00,27.8,25.0,29.74,North,360,0.0,0.0,89,0.00,,---,0.00,32.00,VWS V14.01,2013-01-16 09:30:00,
2013-01-16 10:35:00,27.8,25.0,29.74,North,360,0.0,4.0,89,0.00,,---,0.00,37.00,VWS V14.01,2013-01-16 09:35:00,
2013-01-16 10:40:00,27.8,25.0,29.74,North,360,2.0,3.0,89,0.00,,---,0.00,28.00,VWS V14.01,2013-01-16 09:40:00,
2013-01-16 10:45:00,27.9,25.1,29.73,North,360,0.0,4.0,89,0.00,,---,0.00,33.00,VWS V14.01,2013-01-16 09:45:00,
2013-01-16 10:50:00,28.0,24.9,29.73,North,360,0.0,3.0,88,0.00,,---,0.00,35.00,VWS V14.01,2013-01-16 09:50:00,
2013-01-16 11:00:00,28.1,25.0,29.73,North,360,0.0,0.0,88,0.00,,---,0.00,39.00,VWS V14.01,2013-01-16 10:00:00,
2013-01-16 11:10:00,28.3,25.2,29.73,North,360,0.0,2.0,88,0.00,,---,0.00,35.00,VWS V14.01,2013-01-16 10:10:00,
2013-01-16 11:15:00,28.3,25.2,29.73,North,5,2.0,2.0,88,0.00,,---,0.00,40.00,VWS V14.01,2013-01-16 10:15:00,
2013-01-16 11:25:00,28.4,25.3,29.73,North,9,0.0,0.0,88,0.00,,---,0.00,65.00,VWS V14.01,2013-01-16 10:25:00,
2013-01-16 11:30:00,28.5,25.4,29.72,North,5,2.0,3.0,88,0.00,,---,0.00,56.00,VWS V14.01,2013-01-16 10:30:00,
2013-01-16 11:40:00,28.7,25.6,29.72,North,5,0.0,0.0,88,0.00,,---,0.00,60.00,VWS V14.01,2013-01-16 10:40:00,
2013-01-16 11:45:00,28.7,25.6,29.72,North,360,6.0,6.0,88,0.00,,---,0.00,51.00,VWS V14.01,2013-01-16 10:45:00,
2013-01-16 11:50:00,28.7,25.6,29.72,North,360,1.0,2.0,88,0.00,,---,0.00,60.00,VWS V14.01,2013-01-16 10:50:00,
2013-01-16 11:55:00,28.7,25.3,29.72,North,5,0.0,3.0,87,0.00,,---,0.00,51.00,VWS V14.01,2013-01-16 10:55:00,
2013-01-16 12:00:00,28.7,25.3,29.72,North,5,2.0,3.0,87,0.00,,---,0.00,39.00,VWS V14.01,2013-01-16 11:00:00,
2013-01-16 12:10:00,28.5,25.1,29.72,North,5,1.0,1.0,87,0.00,,---,0.00,30.00,VWS V14.01,2013-01-16 11:10:00,
2013-01-16 12:15:00,28.6,25.2,29.73,North,5,0.0,1.0,87,0.00,,---,0.00,30.00,VWS V14.01,2013-01-16 11:15:00,
2013-01-16 12:20:00,28.6,25.2,29.73,North,360,2.0,2.0,87,0.00,,---,0.00,26.00,VWS V14.01,2013-01-16 11:20:00,
2013-01-16 12:25:00,28.6,25.2,29.73,North,360,3.0,4.0,87,0.00,,---,0.00,28.00,VWS V14.01,2013-01-16 11:25:00,
2013-01-16 12:30:00,28.5,25.1,29.72,North,360,0.0,2.0,87,0.00,,---,0.00,28.00,VWS V14.01,2013-01-16 11:30:00,
2013-01-16 12:35:00,28.5,25.1,29.72,North,360,0.0,0.0,87,0.00,,---,0.00,33.00,VWS V14.01,2013-01-16 11:35:00,
2013-01-16 12:45:00,28.6,25.2,29.71,North,360,0.0,2.0,87,0.00,,---,0.00,33.00,VWS V14.01,2013-01-16 11:45:00,
2013-01-16 12:50:00,28.7,25.3,29.71,North,5,2.0,3.0,87,0.00,,---,0.00,35.00,VWS V14.01,2013-01-16 11:50:00,
2013-01-16 12:55:00,28.8,25.4,29.71,North,5,2.0,3.0,87,0.00,,---,0.00,33.00,VWS V14.01,2013-01-16 11:55:00,
2013-01-16 13:00:00,28.7,25.3,29.71,North,360,3.0,4.0,87,0.00,,---,0.00,30.00,VWS V14.01,2013-01-16 12:00:00,
2013-01-16 13:05:00,28.6,25.2,29.71,North,360,0.0,0.0,87,0.00,,---,0.00,33.00,VWS V14.01,2013-01-16 12:05:00,
2013-01-16 13:15:00,28.7,25.3,29.71,North,5,0.0,0.0,87,0.00,,---,0.00,37.00,VWS V14.01,2013-01-16 12:15:00,
2013-01-16 13:20:00,28.7,25.3,29.71,North,360,1.0,3.0,87,0.00,,---,0.00,44.00,VWS V14.01,2013-01-16 12:20:00,
2013-01-16 13:30:00,28.8,25.7,29.70,North,5,2.0,2.0,88,0.00,,---,0.00,53.00,VWS V14.01,2013-01-16 12:30:00,
2013-01-16 13:40:00,28.9,25.8,29.70,North,360,1.0,3.0,88,0.00,,---,0.00,56.00,VWS V14.01,2013-01-16 12:40:00,
2013-01-16 13:45:00,29.0,25.9,29.70,North,360,0.0,2.0,88,0.00,,---,0.00,49.00,VWS V14.01,2013-01-16 12:45:00,
2013-01-16 13:50:00,29.1,26.0,29.70,North,5,0.0,4.0,88,0.00,,---,0.00,58.00,VWS V14.01,2013-01-16 12:50:00,
2013-01-16 14:00:00,29.2,26.1,29.70,North,5,0.0,2.0,88,0.00,,---,0.00,33.00,VWS V14.01,2013-01-16 13:00:00,
2013-01-16 14:05:00,29.1,26.0,29.70,North,5,1.0,2.0,88,0.00,,---,0.00,30.00,VWS V14.01,2013-01-16 13:05:00,
2013-01-16 14:15:00,29.1,26.0,29.70,North,360,2.0,2.0,88,0.00,,---,0.00,28.00,VWS V14.01,2013-01-16 13:15:00,
2013-01-16 14:20:00,29.0,25.9,29.70,North,5,2.0,2.0,88,0.00,,---,0.00,25.00,VWS V14.01,2013-01-16 13:20:00,
2013-01-16 14:25:00,29.0,25.9,29.70,North,5,0.0,2.0,88,0.00,,---,0.00,23.00,VWS V14.01,2013-01-16 13:25:00,
2013-01-16 14:30:00,29.0,25.9,29.70,North,360,0.0,2.0,88,0.00,,---,0.00,25.00,VWS V14.01,2013-01-16 13:30:00,
2013-01-16 14:40:00,28.8,25.7,29.70,North,5,4.0,4.0,88,0.00,,---,0.00,28.00,VWS V14.01,2013-01-16 13:40:00,
2013-01-16 14:45:00,28.8,25.7,29.70,North,360,1.0,3.0,88,0.00,,---,0.00,30.00,VWS V14.01,2013-01-16 13:45:00,
2013-01-16 14:50:00,28.8,25.7,29.70,North,360,1.0,3.0,88,0.00,,---,0.00,28.00,VWS V14.01,2013-01-16 13:50:00,
2013-01-16 14:55:00,28.8,26.0,29.70,North,355,3.0,3.0,89,0.00,,---,0.00,25.00,VWS V14.01,2013-01-16 13:55:00,
2013-01-16 15:00:00,28.7,25.9,29.70,NNW,341,2.0,3.0,89,0.00,,---,0.00,18.00,VWS V14.01,2013-01-16 14:00:00,
2013-01-16 15:10:00,28.7,25.9,29.70,NNW,344,3.0,6.0,89,0.00,,---,0.00,14.00,VWS V14.01,2013-01-16 14:10:00,
2013-01-16 15:15:00,28.5,25.7,29.70,NNW,345,1.0,3.0,89,0.00,,---,0.00,14.00,VWS V14.01,2013-01-16 14:15:00,
2013-01-16 15:20:00,28.5,26.0,29.70,NNW,345,1.0,3.0,90,0.00,,---,0.00,18.00,VWS V14.01,2013-01-16 14:20:00,
2013-01-16 15:30:00,28.5,26.0,29.70,NNW,346,2.0,3.0,90,0.00,,---,0.00,12.00,VWS V14.01,2013-01-16 14:30:00,
2013-01-16 15:35:00,28.7,26.1,29.70,NNW,346,0.0,0.0,90,0.00,,---,0.00,12.00,VWS V14.01,2013-01-16 14:35:00,
2013-01-16 15:45:00,28.7,26.1,29.70,NNW,346,2.0,4.0,90,0.00,,---,0.00,7.00,VWS V14.01,2013-01-16 14:45:00,
2013-01-16 15:55:00,28.7,26.4,29.70,NNW,344,0.0,0.0,91,0.00,,---,0.00,5.00,VWS V14.01,2013-01-16 14:55:00,
2013-01-16 16:00:00,28.7,26.4,29.70,NNW,344,0.0,1.0,91,0.00,,---,0.00,0.00,VWS V14.01,2013-01-16 15:00:00,
2013-01-16 16:10:00,28.7,26.4,29.70,NNW,340,0.0,2.0,91,0.00,,---,0.00,0.00,VWS V14.01,2013-01-16 15:10:00,
2013-01-16 16:15:00,28.7,26.4,29.70,NNW,343,3.0,4.0,91,0.00,,---,0.00,0.00,VWS V14.01,2013-01-16 15:15:00,
2013-01-16 16:25:00,28.7,26.4,29.70,North,351,2.0,4.0,91,0.00,,---,0.00,0.00,VWS V14.01,2013-01-16 15:25:00,
2013-01-16 16:30:00,28.8,26.5,29.70,North,5,3.0,4.0,91,0.00,,---,0.00,0.00,VWS V14.01,2013-01-16 15:30:00,
2013-01-16 16:40:00,28.8,26.5,29.70,NNW,348,4.0,4.0,91,0.00,,---,0.00,0.00,VWS V14.01,2013-01-16 15:40:00,
2013-01-16 16:45:00,28.7,26.4,29.70,NNW,344,0.0,4.0,91,0.00,,---,0.00,0.00,VWS V14.01,2013-01-16 15:45:00,
2013-01-16 16:55:00,28.8,26.5,29.70,NNW,346,0.0,1.0,91,0.00,,---,0.00,0.00,VWS V14.01,2013-01-16 15:55:00,
2013-01-16 17:00:00,28.8,26.5,29.70,NNW,342,0.0,2.0,91,0.00,,---,0.00,0.00,VWS V14.01,2013-01-16 16:00:00,
2013-01-16 17:10:00,28.9,26.6,29.70,North,5,2.0,2.0,91,0.00,,---,0.00,0.00,VWS V14.01,2013-01-16 16:10:00,
2013-01-16 17:15:00,28.9,26.6,29.70,North,5,0.0,3.0,91,0.00,,---,0.00,0.00,VWS V14.01,2013-01-16 16:15:00,
2013-01-16 17:20:00,28.9,26.6,29.70,North,360,3.0,4.0,91,0.00,,---,0.00,0.00,VWS V14.01,2013-01-16 16:20:00,
2013-01-16 17:25:00,28.9,26.6,29.70,NNE,13,1.0,7.0,91,0.00,,---,0.00,0.00,VWS V14.01,2013-01-16 16:25:00,
2013-01-16 17:30:00,29.0,26.7,29.70,NNE,22,6.0,13.0,91,0.00,,---,0.00,0.00,VWS V14.01,2013-01-16 16:30:00,
2013-01-16 17:35:00,28.9,26.6,29.70,NE,43,0.0,5.0,91,0.00,,---,0.00,0.00,VWS V14.01,2013-01-16 16:35:00,
2013-01-16 17:45:00,29.0,26.7,29.70,NNE,19,0.0,3.0,91,0.00,,---,0.00,0.00,VWS V14.01,2013-01-16 16:45:00,
2013-01-16 17:50:00,28.9,26.6,29.70,North,5,2.0,5.0,91,0.00,,---,0.00,0.00,VWS V14.01,2013-01-16 16:50:00,
2013-01-16 17:55:00,28.8,26.5,29.70,North,360,3.0,6.0,91,0.00,,---,0.00,0.00,VWS V14.01,2013-01-16 16:55:00,
2013-01-16 18:00:00,28.8,26.2,29.70,North,355,2.0,9.0,90,0.00,,---,0.00,0.00,VWS V14.01,2013-01-16 17:00:00,
2013-01-16 18:10:00,28.7,26.1,29.70,NNE,12,1.0,8.0,90,0.00,,---,0.00,0.00,VWS V14.01,2013-01-16 17:10:00,
2013-01-16 18:20:00,28.7,26.1,29.70,North,355,0.0,4.0,90,0.00,,---,0.00,0.00,VWS V14.01,2013-01-16 17:20:00,
2013-01-16 18:25:00,28.7,26.1,29.70,North,5,2.0,5.0,90,0.00,,---,0.00,0.00,VWS V14.01,2013-01-16 17:25:00,
2013-01-16 18:30:00,28.6,26.0,29.70,North,355,3.0,7.0,90,0.00,,---,0.00,0.00,VWS V14.01,2013-01-16 17:30:00,
2013-01-16 18:35:00,28.6,26.0,29.70,NNE,24,4.0,7.0,90,0.00,,---,0.00,0.00,VWS V14.01,2013-01-16 17:35:00,
2013-01-16 18:45:00,28.7,26.1,29.70,NW,307,5.0,5.0,90,0.00,,---,0.00,0.00,VWS V14.01,2013-01-16 17:45:00,
2013-01-16 18:55:00,28.7,26.1,29.70,North,360,6.0,10.0,90,0.00,,---,0.00,0.00,VWS V14.01,2013-01-16 17:55:00,
2013-01-16 19:00:00,28.7,25.9,29.70,NNE,24,1.0,4.0,89,0.00,,---,0.00,0.00,VWS V14.01,2013-01-16 18:00:00,
2013-01-16 19:10:00,28.7,25.9,29.70,NE,36,1.0,5.0,89,0.00,,---,0.00,0.00,VWS V14.01,2013-01-16 18:10:00,
2013-01-16 19:20:00,28.8,26.0,29.70,North,9,2.0,2.0,89,0.00,,---,0.00,0.00,VWS V14.01,2013-01-16 18:20:00,
2013-01-16 19:25:00,28.7,25.9,29.70,North,5,3.0,6.0,89,0.00,,---,0.00,0.00,VWS V14.01,2013-01-16 18:25:00,
2013-01-16 19:30:00,28.7,25.9,29.70,NE,46,0.0,4.0,89,0.00,,---,0.00,0.00,VWS V14.01,2013-01-16 18:30:00,
2013-01-16 19:35:00,28.8,26.0,29.70,NNE,21,3.0,6.0,89,0.00,,---,0.00,0.00,VWS V14.01,2013-01-16 18:35:00,
2013-01-16 19:40:00,28.8,26.0,29.70,North,360,0.0,3.0,89,0.00,,---,0.00,0.00,VWS V14.01,2013-01-16 18:40:00,
2013-01-16 19:50:00,28.7,25.9,29.70,NNE,13,3.0,6.0,89,0.00,,---,0.00,0.00,VWS V14.01,2013-01-16 18:50:00,
2013-01-16 20:00:00,28.8,26.0,29.70,North,5,3.0,3.0,89,0.00,,---,0.00,0.00,VWS V14.01,2013-01-16 19:00:00,
2013-01-16 20:10:00,28.7,25.9,29.70,NNE,17,0.0,0.0,89,0.00,,---,0.00,0.00,VWS V14.01,2013-01-16 19:10:00,
2013-01-16 20:15:00,28.7,25.9,29.70,NE,44,4.0,7.0,89,0.00,,---,0.00,0.00,VWS V14.01,2013-01-16 19:15:00,
2013-01-16 20:25:00,28.7,25.9,29.70,North,11,0.0,3.0,89,0.00,,---,0.00,0.00,VWS V14.01,2013-01-16 19:25:00,
2013-01-16 20:30:00,28.7,25.9,29.70,North,355,3.0,5.0,89,0.00,,---,0.00,0.00,VWS V14.01,2013-01-16 19:30:00,
2013-01-16 20:35:00,28.6,25.5,29.70,NNW,347,4.0,4.0,88,0.00,,---,0.00,0.00,VWS V14.01,2013-01-16 19:35:00,
2013-01-16 20:45:00,28.5,25.4,29.70,North,355,2.0,2.0,88,0.00,,---,0.00,0.00,VWS V14.01,2013-01-16 19:45:00,
2013-01-16 20:50:00,28.5,25.4,29.70,NNW,344,0.0,0.0,88,0.00,,---,0.00,0.00,VWS V14.01,2013-01-16 19:50:00,
2013-01-16 21:00:00,28.4,25.3,29.70,NNE,17,5.0,7.0,88,0.00,,---,0.00,0.00,VWS V14.01,2013-01-16 20:00:00,
2013-01-16 21:10:00,28.5,25.4,29.70,NNE,25,0.0,1.0,88,0.00,,---,0.00,0.00,VWS V14.01,2013-01-16 20:10:00,
2013-01-16 21:15:00,28.6,25.5,29.71,NNE,22,3.0,5.0,88,0.00,,---,0.00,0.00,VWS V14.01,2013-01-16 20:15:00,
2013-01-16 21:20:00,28.7,25.6,29.71,North,360,2.0,4.0,88,0.00,,---,0.00,0.00,VWS V14.01,2013-01-16 20:20:00,
2013-01-16 21:30:00,28.7,25.6,29.70,North,10,6.0,7.0,88,0.00,,---,0.00,0.00,VWS V14.01,2013-01-16 20:30:00,
2013-01-16 21:35:00,28.6,25.5,29.70,North,5,4.0,6.0,88,0.00,,---,0.00,0.00,VWS V14.01,2013-01-16 20:35:00,
2013-01-16 21:45:00,28.5,25.4,29.70,NNW,348,0.0,4.0,88,0.00,,---,0.00,0.00,VWS V14.01,2013-01-16 20:45:00,
2013-01-16 21:55:00,28.5,25.4,29.70,NNE,19,3.0,4.0,88,0.00,,---,0.00,0.00,VWS V14.01,2013-01-16 20:55:00,
2013-01-16 22:00:00,28.5,25.4,29.70,North,360,0.0,5.0,88,0.00,,---,0.00,0.00,VWS V14.01,2013-01-16 21:00:00,
2013-01-16 22:10:00,28.4,25.3,29.70,NNE,28,0.0,5.0,88,0.00,,---,0.00,0.00,VWS V14.01,2013-01-16 21:10:00,
2013-01-16 22:20:00,28.4,25.3,29.70,North,355,4.0,5.0,88,0.00,,---,0.00,0.00,VWS V14.01,2013-01-16 21:20:00,
2013-01-16 22:25:00,28.4,25.3,29.70,North,5,5.0,7.0,88,0.00,,---,0.00,0.00,VWS V14.01,2013-01-16 21:25:00,
2013-01-16 22:30:00,28.5,25.4,29.70,NE,47,3.0,7.0,88,0.00,,---,0.00,0.00,VWS V14.01,2013-01-16 21:30:00,
2013-01-16 22:35:00,28.4,25.3,29.70,North,360,0.0,3.0,88,0.00,,---,0.00,0.00,VWS V14.01,2013-01-16 21:35:00,
2013-01-16 22:40:00,28.4,25.3,29.70,NNE,22,2.0,6.0,88,0.00,,---,0.00,0.00,VWS V14.01,2013-01-16 21:40:00,
2013-01-16 22:45:00,28.4,25.3,29.71,North,360,0.0,4.0,88,0.00,,---,0.00,0.00,VWS V14.01,2013-01-16 21:45:00,
2013-01-16 22:55:00,28.3,25.2,29.71,North,9,4.0,5.0,88,0.00,,---,0.00,0.00,VWS V14.01,2013-01-16 21:55:00,
2013-01-16 23:00:00,28.3,25.2,29.71,NE,44,2.0,9.0,88,0.00,,---,0.00,0.00,VWS V14.01,2013-01-16 22:00:00,
2013-01-16 23:10:00,28.2,25.1,29.71,NNE,26,3.0,10.0,88,0.00,,---,0.00,0.00,VWS V14.01,2013-01-16 22:10:00,
2013-01-16 23:15:00,28.3,25.2,29.71,North,9,0.0,4.0,88,0.00,,---,0.00,0.00,VWS V14.01,2013-01-16 22:15:00,
2013-01-16 23:25:00,28.2,25.1,29.71,North,355,4.0,6.0,88,0.00,,---,0.00,0.00,VWS V14.01,2013-01-16 22:25:00,
2013-01-16 23:30:00,28.1,25.0,29.71,NE,40,0.0,5.0,88,0.00,,---,0.00,0.00,VWS V14.01,2013-01-16 22:30:00,
2013-01-16 23:35:00,28.1,25.0,29.71,North,355,0.0,3.0,88,0.00,,---,0.00,0.00,VWS V14.01,2013-01-16 22:35:00,
2013-01-16 23:40:00,28.2,25.1,29.71,North,360,4.0,9.0,88,0.00,,---,0.00,0.00,VWS V14.01,2013-01-16 22:40:00,
2013-01-16 23:45:00,28.1,25.0,29.71,North,355,1.0,5.0,88,0.00,,---,0.00,0.00,VWS V14.01,2013-01-16 22:45:00,
2013-01-16 23:50:00,28.1,25.0,29.71,NNE,16,3.0,3.0,88,0.00,,---,0.00,0.00,VWS V14.01,2013-01-16 22:50:00,